| time (UTC) | temp F | wind direction | speed MPH | gust MPH | rain 1hr in | rain 24hr in | rain mn in | humidity % | barometer mb |
| 20260505172824 | 57 | 104 | 3.0 | 4.0 | 0.00 | 0.09 | 0.09 | 36 | 1010.5 |
| 20260505172322 | 57 | 329 | 6.0 | 8.0 | 0.00 | 0.09 | 0.09 | 34 | 1010.6 |
| 20260505171821 | 59 | 327 | 4.0 | 6.0 | 0.00 | 0.09 | 0.09 | 38 | 1010.2 |
| 20260505171318 | 58 | 192 | 1.0 | 2.0 | 0.00 | 0.09 | 0.09 | 38 | 1010.3 |
| 20260505170815 | 58 | 303 | 1.0 | 2.0 | 0.00 | 0.09 | 0.09 | 38 | 1010.2 |
| 20260505170312 | 58 | 254 | 6.0 | 8.0 | 0.00 | 0.09 | 0.09 | 38 | 1010.2 |
| 20260505165807 | 57 | 307 | 2.0 | 3.0 | 0.00 | 0.09 | 0.09 | 41 | 1010.4 |
| 20260505165305 | 57 | 351 | 3.0 | 4.0 | 0.00 | 0.09 | 0.09 | 39 | 1010.1 |
| 20260505164759 | 57 | 339 | 4.0 | 7.0 | 0.00 | 0.09 | 0.09 | 39 | 1010.3 |
| 20260505164256 | 57 | 327 | 2.0 | 2.0 | 0.00 | 0.09 | 0.09 | 42 | 1010.4 |
| 20260505163754 | 57 | 6 | 1.0 | 1.0 | 0.00 | 0.09 | 0.09 | 39 | 1010.7 |
| 20260505163253 | 57 | 337 | 3.0 | 3.0 | 0.00 | 0.09 | 0.09 | 38 | 1010.5 |
| 20260505162750 | 57 | 350 | 1.0 | 1.0 | 0.00 | 0.09 | 0.09 | 39 | 1010.4 |
| 20260505162246 | 57 | 2 | 2.0 | 2.0 | 0.00 | 0.09 | 0.09 | 40 | 1010.3 |
| 20260505161743 | 56 | 255 | 4.0 | 6.0 | 0.00 | 0.09 | 0.09 | 40 | 1010.3 |
| 20260505161241 | 56 | 344 | 1.0 | 2.0 | 0.00 | 0.09 | 0.09 | 41 | 1010.1 |
| 20260505160738 | 55 | 275 | 2.0 | 2.0 | 0.00 | 0.09 | 0.09 | 43 | 1010.1 |
| 20260505160236 | 55 | 201 | 1.0 | 2.0 | 0.00 | 0.09 | 0.09 | 40 | 1010.3 |
| 20260505153215 | 54 | 6 | 2.0 | 2.0 | 0.00 | 0.09 | 0.09 | 45 | 1010.2 |
| 20260505152712 | 54 | 283 | 4.0 | 6.0 | 0.00 | 0.09 | 0.09 | 45 | 1010.2 |
| 20260505152208 | 53 | 314 | 1.0 | 1.0 | 0.00 | 0.09 | 0.09 | 46 | 1010.1 |
| 20260505151703 | 53 | 9 | 1.0 | 1.0 | 0.00 | 0.09 | 0.09 | 46 | 1010.0 |
| 20260505151201 | 54 | 262 | 3.0 | 3.0 | 0.00 | 0.09 | 0.09 | 45 | 1010.3 |
| 20260505150657 | 53 | 353 | 4.0 | 4.0 | 0.00 | 0.09 | 0.09 | 44 | 1010.4 |
| 20260505150155 | 52 | 275 | 3.0 | 4.0 | 0.00 | 0.09 | 0.09 | 47 | 1010.2 |
| 20260505140628 | 49 | 186 | 0.0 | 0.0 | 0.00 | 0.09 | 0.09 | 77 | 1010.9 |
| 20260505140125 | 49 | 114 | 1.0 | 1.0 | 0.00 | 0.09 | 0.09 | 77 | 1011.0 |
| 20260505124543 | 46 | 343 | 0.0 | 0.0 | 0.05 | 0.06 | 0.06 | 82 | 1010.4 |
| 20260505124039 | 47 | 293 | 1.0 | 1.0 | 0.00 | 0.05 | 0.05 | 81 | 1010.3 |
| 20260505123536 | 46 | 348 | 0.0 | 0.0 | 0.07 | 0.05 | 0.05 | 79 | 1009.9 |
| 20260505123032 | 46 | 320 | 1.0 | 2.0 | 0.07 | 0.05 | 0.05 | 80 | 1010.1 |
| 20260505122529 | 47 | 352 | 0.0 | 0.0 | 0.05 | 0.04 | 0.04 | 77 | 1010.3 |
| 20260505122026 | 47 | 45 | 0.0 | 1.0 | 0.12 | 0.04 | 0.04 | 75 | 1010.1 |
| 20260505121523 | 47 | 188 | 1.0 | 1.0 | 0.07 | 0.03 | 0.03 | 74 | 1010.5 |
| 20260505121019 | 48 | 276 | 2.0 | 2.0 | 0.05 | 0.02 | 0.02 | 70 | 1010.5 |
| 20260505120516 | 48 | 11 | 1.0 | 2.0 | 0.05 | 0.02 | 0.02 | 69 | 1010.7 |
| 20260505120011 | 48 | 357 | 4.0 | 6.0 | 0.00 | 0.01 | 0.01 | 66 | 1010.1 |
| 20260505115506 | 49 | 291 | 2.0 | 2.0 | 0.07 | 0.01 | 0.01 | 62 | 1009.9 |
| 20260505115004 | 49 | 257 | 1.0 | 2.0 | 0.07 | 0.01 | 0.01 | 61 | 1009.9 |
| 20260505114500 | 50 | 28 | 1.0 | 1.0 | 0.00 | 0.00 | 0.00 | 55 | 1009.3 |
| 20260505113957 | 50 | 323 | 3.0 | 3.0 | 0.00 | 0.00 | 0.00 | 53 | 1009.5 |
| 20260505113453 | 50 | 354 | 3.0 | 4.0 | 0.00 | 0.00 | 0.00 | 50 | 1009.4 |
| 20260505112949 | 51 | 315 | 3.0 | 4.0 | 0.00 | 0.00 | 0.00 | 50 | 1008.9 |
| 20260505112447 | 51 | 344 | 2.0 | 3.0 | 0.00 | 0.00 | 0.00 | 50 | 1008.7 |
| 20260505111944 | 51 | 13 | 3.0 | 3.0 | 0.00 | 0.00 | 0.00 | 51 | 1008.2 |
| 20260505111438 | 51 | 57 | 3.0 | 4.0 | 0.00 | 0.00 | 0.00 | 52 | 1008.2 |
| 20260505110934 | 51 | 351 | 3.0 | 3.0 | 0.00 | 0.00 | 0.00 | 52 | 1008.0 |
| 20260505110431 | 51 | 304 | 4.0 | 6.0 | 0.00 | 0.00 | 0.00 | 51 | 1008.6 |
| 20260505101902 | 51 | 319 | 1.0 | 1.0 | 0.00 | 0.00 | 0.00 | 63 | 1007.3 |
| 20260505101357 | 51 | 355 | 0.0 | 1.0 | 0.00 | 0.00 | 0.00 | 63 | 1007.2 |
| 20260505100853 | 52 | 338 | 1.0 | 1.0 | 0.00 | 0.00 | 0.00 | 61 | 1007.4 |
| 20260505100350 | 52 | 356 | 0.0 | 1.0 | 0.00 | 0.00 | 0.00 | 60 | 1007.6 |
| 20260505095845 | 53 | 343 | 1.0 | 2.0 | 0.00 | 0.00 | 0.00 | 56 | 1007.6 |
| 20260505095343 | 53 | 264 | 3.0 | 4.0 | 0.00 | 0.00 | 0.00 | 54 | 1007.9 |
| 20260505094839 | 53 | 330 | 3.0 | 3.0 | 0.00 | 0.00 | 0.00 | 54 | 1007.9 |
| 20260505094336 | 53 | 345 | 1.0 | 1.0 | 0.00 | 0.00 | 0.00 | 56 | 1007.7 |
| 20260505093831 | 53 | 2 | 1.0 | 2.0 | 0.00 | 0.00 | 0.00 | 54 | 1007.5 |
| 20260505093329 | 53 | 302 | 1.0 | 2.0 | 0.00 | 0.00 | 0.00 | 54 | 1007.6 |
| 20260505092826 | 53 | 344 | 4.0 | 4.0 | 0.00 | 0.00 | 0.00 | 53 | 1007.8 |
| 20260505092325 | 53 | 309 | 3.0 | 3.0 | 0.00 | 0.00 | 0.00 | 54 | 1007.3 |
| 20260505091821 | 54 | 41 | 1.0 | 2.0 | 0.00 | 0.00 | 0.00 | 56 | 1007.1 |
| 20260505091319 | 55 | 9 | 1.0 | 2.0 | 0.00 | 0.00 | 0.00 | 52 | 1007.2 |
| 20260505090817 | 55 | 355 | 2.0 | 3.0 | 0.00 | 0.00 | 0.00 | 48 | 1007.2 |
| 20260505090315 | 56 | 35 | 0.0 | 0.0 | 0.00 | 0.00 | 0.00 | 47 | 1007.2 |
| 20260505085812 | 56 | 273 | 3.0 | 4.0 | 0.00 | 0.00 | 0.00 | 48 | 1007.0 |
| 20260505085310 | 56 | 349 | 4.0 | 6.0 | 0.00 | 0.00 | 0.00 | 48 | 1006.7 |
| 20260505084807 | 57 | 303 | 3.0 | 3.0 | 0.00 | 0.00 | 0.00 | 47 | 1006.5 |
| 20260505084306 | 57 | 332 | 6.0 | 7.0 | 0.00 | 0.00 | 0.00 | 45 | 1006.3 |
| 20260505083803 | 57 | 260 | 4.0 | 6.0 | 0.00 | 0.00 | 0.00 | 45 | 1006.0 |
| 20260505083300 | 57 | 331 | 0.0 | 0.0 | 0.00 | 0.00 | 0.00 | 46 | 1005.9 |
| 20260505082756 | 58 | 285 | 4.0 | 6.0 | 0.00 | 0.00 | 0.00 | 45 | 1005.2 |
| 20260505082253 | 58 | 328 | 1.0 | 2.0 | 0.00 | 0.00 | 0.00 | 44 | 1005.1 |
| 20260505081749 | 58 | 328 | 2.0 | 3.0 | 0.00 | 0.00 | 0.00 | 44 | 1005.4 |
| 20260505081246 | 58 | 319 | 1.0 | 2.0 | 0.00 | 0.00 | 0.00 | 43 | 1005.3 |
| 20260505080743 | 58 | 286 | 2.0 | 4.0 | 0.00 | 0.00 | 0.00 | 42 | 1005.0 |
| 20260505080238 | 58 | 309 | 3.0 | 3.0 | 0.00 | 0.00 | 0.00 | 42 | 1004.9 |
| 20260505075734 | 59 | 314 | 4.0 | 6.0 | 0.00 | 0.00 | 0.00 | 41 | 1004.7 |
| 20260505075232 | 59 | 15 | 1.0 | 2.0 | 0.00 | 0.00 | 0.00 | 43 | 1004.8 |
| 20260505074729 | 59 | 17 | 3.0 | 6.0 | 0.00 | 0.00 | 0.00 | 42 | 1004.7 |
| 20260505074226 | 59 | 4 | 1.0 | 1.0 | 0.00 | 0.00 | 0.00 | 43 | 1004.7 |
| 20260505073724 | 59 | 326 | 2.0 | 2.0 | 0.00 | 0.00 | 0.00 | 42 | 1004.6 |
| 20260505073221 | 59 | 2 | 3.0 | 4.0 | 0.00 | 0.00 | 0.00 | 41 | 1004.6 |
| 20260505072717 | 59 | 286 | 3.0 | 3.0 | 0.00 | 0.00 | 0.00 | 41 | 1004.4 |
| 20260505072214 | 60 | 1 | 1.0 | 1.0 | 0.00 | 0.00 | 0.00 | 41 | 1004.2 |
| 20260505071709 | 60 | 50 | 2.0 | 2.0 | 0.00 | 0.00 | 0.00 | 40 | 1004.2 |
| 20260505071207 | 60 | 335 | 0.0 | 0.0 | 0.00 | 0.00 | 0.00 | 41 | 1004.0 |
| 20260505070704 | 60 | 341 | 2.0 | 4.0 | 0.00 | 0.00 | 0.00 | 39 | 1004.1 |
| 20260505070200 | 60 | 348 | 2.0 | 3.0 | 0.00 | 0.00 | 0.00 | 40 | 1003.9 |
| 20260505065656 | 60 | 293 | 2.0 | 2.0 | 0.00 | 0.00 | 0.00 | 39 | 1004.1 |
| 20260505065153 | 60 | 4 | 3.0 | 4.0 | 0.00 | 0.00 | 0.00 | 39 | 1004.1 |
| 20260505064650 | 60 | 355 | 2.0 | 2.0 | 0.00 | 0.00 | 0.00 | 39 | 1004.1 |
| 20260505064148 | 61 | 62 | 1.0 | 2.0 | 0.00 | 0.00 | 0.00 | 38 | 1003.9 |
| 20260505063645 | 61 | 356 | 2.0 | 3.0 | 0.00 | 0.00 | 0.00 | 38 | 1004.1 |
| 20260505063141 | 61 | 254 | 1.0 | 3.0 | 0.00 | 0.00 | 0.00 | 39 | 1003.8 |
| 20260505062638 | 61 | 286 | 3.0 | 4.0 | 0.00 | 0.00 | 0.00 | 38 | 1003.7 |
| 20260505062135 | 61 | 308 | 2.0 | 3.0 | 0.00 | 0.00 | 0.00 | 38 | 1003.6 |
| 20260505061632 | 61 | 331 | 2.0 | 2.0 | 0.00 | 0.00 | 0.00 | 39 | 1003.8 |
| 20260505061130 | 61 | 306 | 2.0 | 2.0 | 0.00 | 0.00 | 0.00 | 39 | 1003.8 |
| 20260505060627 | 61 | 19 | 1.0 | 2.0 | 0.00 | 0.00 | 0.00 | 38 | 1003.7 |
| 20260505060124 | 62 | 347 | 3.0 | 4.0 | 0.00 | 0.00 | 0.00 | 38 | 1003.7 |
| 20260505055619 | 62 | 32 | 4.0 | 4.0 | 0.00 | 0.00 | 0.00 | 40 | 1003.8 |
| 20260505055116 | 62 | 332 | 3.0 | 4.0 | 0.00 | 0.00 | 0.00 | 39 | 1003.7 |
| 20260505054614 | 62 | 342 | 2.0 | 2.0 | 0.00 | 0.00 | 0.00 | 41 | 1003.8 |
| 20260505054112 | 62 | 299 | 0.0 | 1.0 | 0.00 | 0.00 | 0.00 | 41 | 1004.0 |
| 20260505053608 | 62 | 320 | 2.0 | 3.0 | 0.00 | 0.00 | 0.00 | 42 | 1003.9 |
| 20260505053105 | 62 | 330 | 1.0 | 2.0 | 0.00 | 0.00 | 0.00 | 43 | 1003.7 |
| 20260505052602 | 62 | 296 | 1.0 | 2.0 | 0.00 | 0.00 | 0.00 | 42 | 1003.4 |
| 20260505052100 | 62 | 346 | 1.0 | 2.0 | 0.00 | 0.00 | 0.00 | 41 | 1003.4 |
| 20260505051556 | 62 | 313 | 1.0 | 1.0 | 0.00 | 0.00 | 0.00 | 42 | 1003.2 |
| 20260505051054 | 62 | 327 | 2.0 | 2.0 | 0.00 | 0.00 | 0.00 | 41 | 1003.2 |
| 20260505050552 | 63 | 341 | 1.0 | 2.0 | 0.00 | 0.00 | 0.00 | 41 | 1003.0 |
| 20260505041520 | 63 | 55 | 0.0 | 0.0 | 0.00 | 0.36 | 0.36 | 67 | 1002.5 |
| 20260505041017 | 63 | 226 | 1.0 | 1.0 | 0.00 | 0.36 | 0.36 | 66 | 1002.3 |
| 20260505040515 | 63 | 311 | 0.0 | 0.0 | 0.00 | 0.36 | 0.36 | 67 | 1002.4 |
| 20260505040012 | 63 | 179 | 2.0 | 2.0 | 0.00 | 0.36 | 0.36 | 67 | 1002.3 |
| 20260505035508 | 63 | 296 | 2.0 | 2.0 | 0.00 | 0.36 | 0.36 | 69 | 1002.5 |
| 20260505035005 | 63 | 137 | 4.0 | 7.0 | 0.00 | 0.36 | 0.36 | 69 | 1002.7 |
| 20260505034501 | 63 | 170 | 3.0 | 4.0 | 0.00 | 0.36 | 0.36 | 71 | 1002.7 |
| 20260505033958 | 63 | 2 | 1.0 | 1.0 | 0.00 | 0.36 | 0.36 | 70 | 1002.5 |
| 20260505033455 | 64 | 181 | 1.0 | 2.0 | 0.00 | 0.36 | 0.36 | 68 | 1002.5 |
| 20260505032953 | 64 | 182 | 2.0 | 2.0 | 0.00 | 0.36 | 0.36 | 66 | 1002.3 |
| 20260505032450 | 64 | 132 | 0.0 | 1.0 | 0.00 | 0.36 | 0.36 | 66 | 1001.9 |
| 20260505031946 | 64 | 224 | 2.0 | 3.0 | 0.00 | 0.36 | 0.36 | 66 | 1001.8 |
| 20260505031443 | 64 | 331 | 0.0 | 1.0 | 0.00 | 0.36 | 0.36 | 67 | 1001.6 |
| 20260505030940 | 64 | 316 | 2.0 | 3.0 | 0.00 | 0.36 | 0.36 | 67 | 1001.9 |
| 20260505030436 | 64 | 134 | 1.0 | 2.0 | 0.00 | 0.36 | 0.36 | 68 | 1002.1 |
| 20260505025932 | 64 | 282 | 3.0 | 3.0 | 0.00 | 0.36 | 0.36 | 69 | 1002.3 |
| 20260505025429 | 64 | 308 | 3.0 | 4.0 | 0.00 | 0.36 | 0.36 | 69 | 1002.3 |
| 20260505024928 | 64 | 207 | 2.0 | 2.0 | 0.00 | 0.36 | 0.36 | 69 | 1002.3 |
| 20260505024425 | 64 | 193 | 1.0 | 1.0 | 0.00 | 0.36 | 0.36 | 69 | 1002.0 |
| 20260505023922 | 64 | 219 | 4.0 | 4.0 | 0.00 | 0.36 | 0.36 | 69 | 1001.7 |
| 20260505023419 | 64 | 183 | 4.0 | 7.0 | 0.00 | 0.36 | 0.36 | 69 | 1001.6 |
| 20260505022916 | 64 | 206 | 4.0 | 4.0 | 0.00 | 0.36 | 0.36 | 69 | 1001.5 |
| 20260505022414 | 64 | 271 | 2.0 | 4.0 | 0.00 | 0.36 | 0.36 | 70 | 1001.3 |
| 20260505021911 | 64 | 176 | 1.0 | 1.0 | 0.00 | 0.36 | 0.36 | 70 | 1001.2 |
| 20260505021407 | 64 | 161 | 2.0 | 3.0 | 0.00 | 0.36 | 0.36 | 69 | 1001.1 |
| 20260505020903 | 64 | 160 | 2.0 | 3.0 | 0.00 | 0.36 | 0.36 | 70 | 1000.9 |
| 20260505020358 | 65 | 220 | 3.0 | 3.0 | 0.00 | 0.36 | 0.36 | 69 | 1000.8 |
| 20260505015855 | 65 | 172 | 4.0 | 4.0 | 0.00 | 0.36 | 0.36 | 68 | 1001.0 |
| 20260505015353 | 65 | 223 | 6.0 | 9.0 | 0.00 | 0.36 | 0.36 | 69 | 1001.0 |
| 20260505014850 | 65 | 204 | 4.0 | 6.0 | 0.00 | 0.36 | 0.36 | 68 | 1001.0 |
| 20260505014347 | 66 | 172 | 4.0 | 6.0 | 0.00 | 0.36 | 0.36 | 68 | 1000.9 |
| 20260505013843 | 66 | 179 | 4.0 | 4.0 | 0.00 | 0.36 | 0.36 | 68 | 1001.0 |
| 20260505013340 | 66 | 121 | 1.0 | 1.0 | 0.00 | 0.36 | 0.36 | 69 | 1000.7 |
| 20260505012839 | 66 | 230 | 3.0 | 4.0 | 0.00 | 0.36 | 0.36 | 68 | 1000.3 |
| 20260505012337 | 65 | 214 | 3.0 | 3.0 | 0.00 | 0.36 | 0.36 | 70 | 1000.4 |
| 20260505011832 | 65 | 209 | 6.0 | 10.0 | 0.00 | 0.36 | 0.36 | 71 | 1000.4 |
| 20260505011329 | 65 | 230 | 6.0 | 7.0 | 0.00 | 0.36 | 0.36 | 72 | 1000.0 |
| 20260505010825 | 65 | 179 | 6.0 | 7.0 | 0.00 | 0.36 | 0.36 | 73 | 1000.1 |
| 20260505010321 | 65 | 134 | 4.0 | 4.0 | 0.00 | 0.36 | 0.36 | 74 | 999.9 |
| 20260505005817 | 65 | 207 | 4.0 | 4.0 | 0.00 | 0.36 | 0.36 | 74 | 999.8 |
| 20260505005315 | 65 | 176 | 2.0 | 3.0 | 0.00 | 0.36 | 0.36 | 74 | 999.9 |
| 20260505004812 | 65 | 182 | 3.0 | 3.0 | 0.00 | 0.36 | 0.36 | 72 | 999.6 |
| 20260505004308 | 65 | 201 | 8.0 | 9.0 | 0.00 | 0.36 | 0.36 | 72 | 999.9 |
| 20260505003806 | 64 | 170 | 3.0 | 4.0 | 0.00 | 0.36 | 0.36 | 72 | 999.6 |
| 20260505003303 | 63 | 77 | 3.0 | 4.0 | 0.00 | 0.36 | 0.36 | 78 | 999.6 |
| 20260505002759 | 64 | 135 | 3.0 | 4.0 | 0.00 | 0.36 | 0.36 | 77 | 999.8 |
| 20260505002256 | 63 | 151 | 3.0 | 3.0 | 0.00 | 0.36 | 0.36 | 79 | 999.8 |
| 20260505001754 | 62 | 186 | 5.0 | 7.0 | 0.00 | 0.36 | 0.36 | 82 | 999.7 |
| 20260505001251 | 61 | 205 | 4.0 | 4.0 | 0.00 | 0.36 | 0.36 | 88 | 999.6 |
| 20260505000748 | 61 | 143 | 1.0 | 2.0 | 0.00 | 0.36 | 0.36 | 91 | 999.6 |
| 20260505000246 | 61 | 179 | 0.0 | 0.0 | 0.00 | 0.36 | 0.36 | 92 | 999.2 |
| 20260504235742 | 61 | 192 | 0.0 | 0.0 | 0.00 | 0.36 | 0.36 | 90 | 999.1 |
| 20260504235238 | 61 | 189 | 3.0 | 3.0 | 0.00 | 0.36 | 0.36 | 88 | 999.1 |
| 20260504234736 | 61 | 26 | 0.0 | 0.0 | 0.54 | 0.36 | 0.36 | 86 | 999.0 |
| 20260504234233 | 62 | 147 | 3.0 | 3.0 | 1.21 | 0.36 | 0.36 | 79 | 999.3 |
| 20260504233729 | 61 | 184 | 10.0 | 14.0 | 1.06 | 0.29 | 0.29 | 87 | 1000.7 |
| 20260504233225 | 63 | 297 | 3.0 | 4.0 | 1.02 | 0.17 | 0.17 | 84 | 1000.9 |
| 20260504232723 | 66 | 315 | 6.0 | 8.0 | 0.66 | 0.11 | 0.11 | 74 | 1000.6 |
| 20260504232219 | 69 | 312 | 4.0 | 6.0 | 0.00 | 0.00 | 0.00 | 61 | 999.8 |
| 20260504231716 | 69 | 6 | 4.0 | 9.0 | 0.00 | 0.00 | 0.00 | 60 | 999.5 |
| 20260504231213 | 72 | 252 | 4.0 | 4.0 | 0.00 | 0.00 | 0.00 | 54 | 999.7 |
| 20260504230709 | 73 | 288 | 3.0 | 3.0 | 0.00 | 0.00 | 0.00 | 47 | 999.3 |
| 20260504230208 | 74 | 187 | 3.0 | 4.0 | 0.00 | 0.00 | 0.00 | 47 | 999.2 |
| 20260504225706 | 74 | 159 | 2.0 | 3.0 | 0.00 | 0.00 | 0.00 | 46 | 999.0 |
| 20260504225201 | 74 | 240 | 5.0 | 8.0 | 0.00 | 0.00 | 0.00 | 46 | 999.3 |
| 20260504224659 | 75 | 274 | 5.0 | 8.0 | 0.00 | 0.00 | 0.00 | 44 | 999.3 |
| 20260504224156 | 76 | 180 | 5.0 | 8.0 | 0.00 | 0.00 | 0.00 | 42 | 999.2 |
| 20260504223653 | 76 | 179 | 2.0 | 3.0 | 0.00 | 0.00 | 0.00 | 43 | 999.2 |
| 20260504223148 | 77 | 169 | 3.0 | 3.0 | 0.00 | 0.00 | 0.00 | 41 | 999.1 |
| 20260504222645 | 78 | 169 | 7.0 | 9.0 | 0.00 | 0.00 | 0.00 | 37 | 999.3 |
| 20260504222142 | 78 | 186 | 6.0 | 10.0 | 0.00 | 0.00 | 0.00 | 37 | 999.2 |
| 20260504221640 | 80 | 189 | 5.0 | 7.0 | 0.00 | 0.00 | 0.00 | 36 | 999.1 |
| 20260504221136 | 81 | 139 | 2.0 | 3.0 | 0.00 | 0.00 | 0.00 | 36 | 999.1 |
| 20260504220632 | 81 | 103 | 3.0 | 4.0 | 0.00 | 0.00 | 0.00 | 35 | 999.1 |
| 20260504220131 | 81 | 198 | 2.0 | 3.0 | 0.00 | 0.00 | 0.00 | 36 | 999.2 |
| 20260504215626 | 80 | 168 | 2.0 | 3.0 | 0.00 | 0.00 | 0.00 | 35 | 999.3 |
| 20260504215124 | 80 | 228 | 2.0 | 3.0 | 0.00 | 0.00 | 0.00 | 35 | 999.2 |
| 20260504214620 | 81 | 248 | 6.0 | 8.0 | 0.00 | 0.00 | 0.00 | 34 | 999.4 |
| 20260504214116 | 80 | 206 | 6.0 | 10.0 | 0.00 | 0.00 | 0.00 | 35 | 999.5 |
| 20260504213613 | 81 | 229 | 3.0 | 4.0 | 0.00 | 0.00 | 0.00 | 35 | 999.5 |
| 20260504213110 | 82 | 183 | 5.0 | 9.0 | 0.00 | 0.00 | 0.00 | 34 | 999.6 |
| 20260504212606 | 81 | 241 | 6.0 | 13.0 | 0.00 | 0.00 | 0.00 | 34 | 999.8 |
| 20260504212103 | 81 | 202 | 5.0 | 7.0 | 0.00 | 0.00 | 0.00 | 33 | 999.5 |
| 20260504211600 | 81 | 174 | 2.0 | 3.0 | 0.00 | 0.00 | 0.00 | 34 | 999.9 |
| 20260504211057 | 81 | 242 | 7.0 | 9.0 | 0.00 | 0.00 | 0.00 | 33 | 999.5 |
| 20260504210554 | 79 | 155 | 7.0 | 10.0 | 0.00 | 0.00 | 0.00 | 34 | 999.8 |
| 20260504210050 | 79 | 239 | 2.0 | 3.0 | 0.00 | 0.00 | 0.00 | 35 | 999.9 |
| 20260504205548 | 79 | 324 | 4.0 | 7.0 | 0.00 | 0.00 | 0.00 | 35 | 999.8 |
| 20260504205046 | 80 | 202 | 4.0 | 4.0 | 0.00 | 0.00 | 0.00 | 36 | 999.8 |
| 20260504204544 | 80 | 189 | 2.0 | 2.0 | 0.00 | 0.00 | 0.00 | 35 | 1000.0 |
| 20260504204043 | 82 | 203 | 6.0 | 7.0 | 0.00 | 0.00 | 0.00 | 35 | 999.7 |
| 20260504203540 | 82 | 174 | 5.0 | 10.0 | 0.00 | 0.00 | 0.00 | 34 | 999.7 |
| 20260504203038 | 82 | 191 | 4.0 | 8.0 | 0.00 | 0.00 | 0.00 | 35 | 1000.1 |
| 20260504202533 | 80 | 356 | 2.0 | 4.0 | 0.00 | 0.00 | 0.00 | 38 | 1000.1 |
| 20260504202030 | 81 | 185 | 7.0 | 9.0 | 0.00 | 0.00 | 0.00 | 35 | 1000.1 |
| 20260504201527 | 81 | 228 | 4.0 | 6.0 | 0.00 | 0.00 | 0.00 | 35 | 1000.4 |
| 20260504201025 | 79 | 258 | 3.0 | 4.0 | 0.00 | 0.00 | 0.00 | 36 | 1000.4 |
| 20260504200521 | 81 | 229 | 3.0 | 9.0 | 0.00 | 0.00 | 0.00 | 34 | 1000.6 |
| 20260504200018 | 81 | 234 | 4.0 | 4.0 | 0.00 | 0.00 | 0.00 | 34 | 1000.4 |
| 20260504195514 | 79 | 256 | 4.0 | 6.0 | 0.00 | 0.00 | 0.00 | 35 | 1000.5 |
| 20260504195011 | 80 | 52 | 3.0 | 4.0 | 0.00 | 0.00 | 0.00 | 34 | 1000.7 |
| 20260504194507 | 80 | 147 | 5.0 | 8.0 | 0.00 | 0.00 | 0.00 | 32 | 1000.8 |
| 20260504194002 | 78 | 210 | 5.0 | 11.0 | 0.00 | 0.00 | 0.00 | 34 | 1001.0 |
| 20260504193500 | 78 | 223 | 6.0 | 8.0 | 0.00 | 0.00 | 0.00 | 33 | 1001.1 |
| 20260504192959 | 80 | 174 | 5.0 | 9.0 | 0.00 | 0.00 | 0.00 | 33 | 1000.9 |
| 20260504192456 | 81 | 164 | 5.0 | 8.0 | 0.00 | 0.00 | 0.00 | 30 | 1000.9 |
| 20260504191955 | 80 | 240 | 3.0 | 4.0 | 0.00 | 0.00 | 0.00 | 30 | 1001.0 |
| 20260504191452 | 80 | 187 | 6.0 | 8.0 | 0.00 | 0.00 | 0.00 | 29 | 1001.0 |
| 20260504190947 | 80 | 291 | 5.0 | 8.0 | 0.00 | 0.00 | 0.00 | 30 | 1001.1 |
| 20260504190443 | 80 | 276 | 2.0 | 3.0 | 0.00 | 0.00 | 0.00 | 32 | 1001.2 |
| 20260504185940 | 80 | 172 | 6.0 | 9.0 | 0.00 | 0.00 | 0.00 | 32 | 1001.2 |
| 20260504185437 | 80 | 159 | 4.0 | 4.0 | 0.00 | 0.00 | 0.00 | 32 | 1001.2 |
| 20260504184933 | 79 | 284 | 0.0 | 1.0 | 0.00 | 0.00 | 0.00 | 34 | 1001.0 |
| 20260504184429 | 78 | 208 | 1.0 | 2.0 | 0.00 | 0.00 | 0.00 | 32 | 1001.1 |
| 20260504183925 | 78 | 113 | 3.0 | 4.0 | 0.00 | 0.00 | 0.00 | 31 | 1001.3 |
| 20260504183423 | 78 | 244 | 6.0 | 10.0 | 0.00 | 0.00 | 0.00 | 32 | 1001.5 |
| 20260504182921 | 78 | 158 | 2.0 | 3.0 | 0.00 | 0.00 | 0.00 | 32 | 1001.4 |
| 20260504182417 | 78 | 211 | 4.0 | 6.0 | 0.00 | 0.00 | 0.00 | 33 | 1001.6 |
| 20260504181914 | 77 | 181 | 4.0 | 4.0 | 0.00 | 0.00 | 0.00 | 32 | 1001.7 |
| 20260504181411 | 78 | 216 | 6.0 | 7.0 | 0.00 | 0.00 | 0.00 | 33 | 1001.6 |
| 20260504180910 | 77 | 155 | 5.0 | 6.0 | 0.00 | 0.00 | 0.00 | 33 | 1001.6 |
| 20260504180408 | 77 | 201 | 4.0 | 7.0 | 0.00 | 0.00 | 0.00 | 32 | 1001.9 |
| 20260504175906 | 78 | 210 | 7.0 | 9.0 | 0.00 | 0.00 | 0.00 | 32 | 1002.1 |
| 20260504175403 | 78 | 168 | 4.0 | 6.0 | 0.00 | 0.00 | 0.00 | 34 | 1001.8 |
| 20260504174900 | 77 | 198 | 2.0 | 3.0 | 0.00 | 0.00 | 0.00 | 33 | 1001.9 |
| 20260504174358 | 77 | 194 | 6.0 | 8.0 | 0.00 | 0.00 | 0.00 | 33 | 1001.8 |
| 20260504173855 | 76 | 211 | 7.0 | 10.0 | 0.00 | 0.00 | 0.00 | 33 | 1002.0 |
| 20260504173351 | 77 | 205 | 9.0 | 14.0 | 0.00 | 0.00 | 0.00 | 34 | 1002.1 |